SVYATOBOR 1 (RS60S)

Last updated on Thu Oct 30 2025 00:03:10 GMT+0000 (Coordinated Universal Time)

1 57187U 23091X 25302.44841167 .00013647 00000+0 60724-3 0 9992 2 57187 97.5436 0.3440 0010674 174.6000 185.5353 15.21551537129165
UTC large
Height (km)
Speed (km/s)
/
Latitude / Longitude
Inclination (degrees)
Orbital Period (minutes)
Azimuth
Elevation
Range (km)
Doppler Factor

Next 0 passes for location: London (51.5072 / 0.1276)

Sorry there are no passes over London.